Satellite-Ground Cal/Val Site Overpasses Predictions

Prediction of Satellite NPP Overpassing Cal/Val Site: Antarctic Dome C

Ground Cal/Val Site Location: Latitude: -75.10, Longitude: 123.35; Satellite-Ground Site NADIR distance within 100 km.

Table of predicted overpasses for the next 14.0 days since TLE Epoch: 12/24/2015
Interval Starting Time Ending Time Minimum Distance Time Minimum Distance (km)
1 12/26/2015 14:57:10 12/26/2015 14:57:38 12/26/2015 14:57:24 19.81
2 12/27/2015 14:38:28 12/27/2015 14:38:42 12/27/2015 14:38:35 87.25
3 12/28/2015 07:39:59 12/28/2015 07:40:26 12/28/2015 07:40:12 39.52
4 12/29/2015 07:21:12 12/29/2015 07:21:32 12/29/2015 07:21:22 70.46
5 12/31/2015 15:03:25 12/31/2015 15:03:49 12/31/2015 15:03:37 56.92
6 01/01/2016 14:44:34 01/01/2016 14:44:59 01/01/2016 14:44:47 52.41
7 01/02/2016 07:46:15 01/02/2016 07:46:35 01/02/2016 07:46:25 74.68
8 01/03/2016 07:27:22 01/03/2016 07:27:49 01/03/2016 07:27:35 33.26
9 01/05/2016 15:09:46 01/05/2016 15:09:55 01/05/2016 15:09:51 94.62


<
